Flag for Angola Weather past 2 weeks in Huambo, Angola

Now
82 °F

Broken clouds.


Feels Like: 88 °F
Forecast: 57 / 76 °F
Wind: 7 mph from East

Location: Luanda Airport

Current Time: Feb 27, 2015 at 9:17:38 AM

Latest Report: Feb 27, 2015 at 9:00 AM


Visibility: N/A

Pressure: 29.89 "Hg

Humidity: 74%

Dew point: 73 °F

Location of HuamboLocation

Historic Weather in Huambo — Graph

°F

Huambo temperature yesterday

Maximum temperature yesterday: 88 °F (at 1:00 PM)
Minimum temperature yesterday: 75 °F (at 9:00 PM)
Average temperature yesterday: 80 °F

Past Weeks' High & Low Weather Summary

 TemperatureHumidityPressure
High91 °F (Feb 17, 4:00 PM)100% (Feb 24, 7:00 AM)30.21 "Hg (Feb 24, 7:00 AM)
Low59 °F (Feb 24, 7:00 AM)49% (Feb 17, 4:00 PM)29.74 "Hg (Feb 14, 10:00 AM)
Average80 °F80%29.86 "Hg
* Reported Feb 12 8:00 AM — Feb 27 8:00 AM, Huambo, Weather by CustomWeather, © 2015

Note: Actual official high and low records may vary slightly from our data, if they occured in-between our weather recording intervals... More about our weather records

Advertising

Huambo weather history for previous 24 hours

 ConditionsComfort  
Time TempWeatherWind HumidityBarometerVisibility
8:00 AM
Fri, Feb 27
77 °FPartly sunny.5 mph89%29.89 "HgN/A
7:00 AM75 °FPartly sunny.7 mph89%29.86 "HgN/A
6:00 AM75 °FPassing clouds.5 mph89%29.86 "HgN/A
5:00 AM75 °FPassing clouds.5 mph94%29.83 "HgN/A
4:00 AM75 °FPassing clouds.2 mph94%29.83 "HgN/A
3:00 AM77 °FPassing clouds.3 mph89%29.86 "HgN/A
1:00 AM77 °FPassing clouds.2 mph89%29.86 "HgN/A
12:00 AM77 °FPassing clouds.3 mph89%29.89 "HgN/A
11:00 PM
Thu, Feb 26
77 °FPartly cloudy.3 mph89%29.89 "HgN/A
10:00 PM77 °FPassing clouds.5 mph89%29.86 "HgN/A
9:00 PM75 °FPartly cloudy.5 mph89%29.86 "HgN/A
8:00 PM77 °FPartly cloudy.5 mph89%29.86 "HgN/A
7:00 PM77 °FPartly cloudy.9 mph89%29.83 "HgN/A
6:00 PM77 °FPartly sunny.12 mph89%29.83 "HgN/A
5:00 PM79 °FPartly sunny.14 mph84%29.83 "HgN/A
4:00 PM79 °FBroken clouds.14 mph84%29.80 "HgN/A
3:00 PM77 °FBroken clouds.14 mph83%29.80 "HgN/A
2:00 PM84 °FBroken clouds.9 mph62%29.80 "HgN/A
1:00 PM88 °FBroken clouds.9 mph66%29.83 "HgN/A
12:00 PM86 °FBroken clouds.7 mph70%29.86 "HgN/A
11:00 AM84 °FBroken clouds.2 mph74%29.89 "HgN/A
10:00 AM82 °FPartly sunny.2 mph79%29.89 "HgN/A
9:00 AM81 °FPartly sunny.2 mph84%29.86 "HgN/A
Weather by CustomWeather, © 2015

See weather overviewHow to use our weather pages